Bakersfield, CA

10:27 AM PDT on March 28, 2017 (GMT -0700)
Meadows

Weather History for KBFL - September, 2013

Change the Weather History Date:

Monday, September 23, 2013

  Actual Average Record
Temperature  
Mean Temperature 69 °F 75 °F  
Max Temperature 82 °F 88 °F 107 °F (1943)
Min Temperature 56 °F 62 °F 31 °F (1903)
Degree Days  
Heating Degree Days 0    
Month to date heating degree days 1  
Since 1 July heating degree days 1  
Cooling Degree Days 4    
Month to date cooling degree days 338  
Year to date cooling degree days 2452  
Growing Degree Days 18 (Base 50)    
Moisture  
Dew Point 47 °F    
Average Humidity 46    
Maximum Humidity 62    
Minimum Humidity 30    
Precipitation  
Precipitation 0.00 in 0.00 in 0.60 in (1908)
Month to date precipitation T 0.05  
Year to date precipitation 2.36 4.48  
Since 1 July precipitation T  
Snow  
Snow 0.00 in - - ()
Month to date snowfall 0.0  
Since 1 July snowfall 0.0  
Since 1 September snowfall 0.0  
Snow Depth 0.00 in    
Sea Level Pressure  
Sea Level Pressure 29.96 in    
Wind  
Wind Speed 3 mph (SE)    
Max Wind Speed 10 mph    
Max Gust Speed 14 mph    
Visibility 10 miles    
Events      
T = Trace of Precipitation, MM = Missing Value Source: NWS Daily Summary

Daily Weather History Graph

Daily Weather History Graph

Search for Another Location

Airport or City:

Trip Planner

Search our weather history database for the weather conditions in past years. The results will help you decide how hot, cold, wet, or windy it might be!

Date:

Astronomy

Sep. 23, 2013 Rise Set
Actual Time 6:45 AM PDT 6:51 PM PDT
Civil Twilight 6:19 AM PDT 7:16 PM PDT
Nautical Twilight 5:50 AM PDT 7:46 PM PDT
Astronomical Twilight 5:20 AM PDT 8:15 PM PDT
Moon 9:37 PM PDT (9/23) 10:59 AM PDT (9/23)
Length of Visible Light 12h 56m
Length of Day
12h 05m
Waning Gibbous, 80% of the Moon is Illuminated
Sep 23
Waning Gibbous
Sep 26
Last Quarter
Oct 4
New
Oct 11
First Quarter
Oct 18
Full

Hourly Weather History & Observations

Time (PDT) Temp. Dew Point Humidity Pressure Visibility Wind Dir Wind Speed Gust Speed Precip Events Conditions
12:54 AM 62.1 °F 44.1 °F 52% 29.96 in 10.0 mi Calm Calm - N/A   Clear
1:54 AM 60.1 °F 43.0 °F 53% 29.97 in 10.0 mi Calm Calm - N/A   Clear
2:54 AM 60.1 °F 44.1 °F 55% 29.97 in 10.0 mi Calm Calm - N/A   Clear
3:54 AM 57.9 °F 42.1 °F 56% 29.97 in 10.0 mi Calm Calm - N/A   Clear
4:54 AM 57.9 °F 45.0 °F 62% 29.97 in 10.0 mi Calm Calm - N/A   Clear
5:54 AM 59.0 °F 46.0 °F 62% 29.97 in 10.0 mi East 3.5 mph - N/A   Clear
6:54 AM 57.0 °F 45.0 °F 64% 29.99 in 9.0 mi Calm Calm - N/A   Clear
7:54 AM 60.1 °F 45.0 °F 57% 30.00 in 10.0 mi SE 6.9 mph - N/A   Clear
8:54 AM 62.1 °F 46.0 °F 56% 30.01 in 10.0 mi SSE 5.8 mph - N/A   Clear
9:54 AM 66.0 °F 46.9 °F 50% 30.01 in 10.0 mi Calm Calm - N/A   Clear
10:54 AM 69.1 °F 46.0 °F 44% 30.01 in 10.0 mi SSW 4.6 mph - N/A   Clear
11:54 AM 73.0 °F 46.0 °F 38% 30.00 in 10.0 mi Calm Calm - N/A   Clear
12:54 PM 75.0 °F 46.0 °F 36% 29.97 in 10.0 mi Variable 5.8 mph - N/A   Clear
1:54 PM 77.0 °F 46.0 °F 33% 29.95 in 10.0 mi Variable 4.6 mph - N/A   Clear
2:54 PM 80.1 °F 46.9 °F 31% 29.92 in 10.0 mi Variable 5.8 mph - N/A   Clear
3:54 PM 81.0 °F 46.9 °F 30% 29.90 in 10.0 mi Variable 6.9 mph - N/A   Clear
4:54 PM 81.0 °F 48.0 °F 31% 29.89 in 10.0 mi West 8.1 mph - N/A   Clear
5:54 PM 80.1 °F 48.9 °F 34% 29.89 in 10.0 mi WNW 6.9 mph - N/A   Clear
6:54 PM 77.0 °F 48.9 °F 37% 29.90 in 10.0 mi NW 6.9 mph - N/A   Clear
7:54 PM 75.0 °F 51.1 °F 43% 29.92 in 10.0 mi Calm Calm - N/A   Clear
8:54 PM 73.9 °F 50.0 °F 43% 29.93 in 10.0 mi ENE 3.5 mph - N/A   Clear
9:54 PM 72.0 °F 48.9 °F 44% 29.95 in 10.0 mi ENE 3.5 mph - N/A   Clear
11:54 PM 69.1 °F 50.0 °F 51% 29.95 in 10.0 mi ESE 4.6 mph - N/A   Clear